Date;Q [m3/s]
01.01.1978;0,49
02.01.1978;0,49
03.01.1978;0,5
04.01.1978;0,5
05.01.1978;0,51
06.01.1978;0,52
07.01.1978;0,53
08.01.1978;0,54
09.01.1978;0,55
10.01.1978;0,56
11.01.1978;0,55
12.01.1978;0,54
13.01.1978;0,54
14.01.1978;0,53
15.01.1978;0,52
16.01.1978;0,53
17.01.1978;0,55
18.01.1978;0,56
19.01.1978;0,57
20.01.1978;0,59
21.01.1978;0,6
22.01.1978;0,58
23.01.1978;0,56
24.01.1978;0,55
25.01.1978;0,53
26.01.1978;0,51
27.01.1978;0,49
28.01.1978;0,47
29.01.1978;0,46
30.01.1978;0,44
31.01.1978;0,42
01.02.1978;0,4
02.02.1978;0,42
03.02.1978;0,43
04.02.1978;0,42
05.02.1978;0,41
06.02.1978;0,39
07.02.1978;0,38
08.02.1978;0,37
09.02.1978;0,36
10.02.1978;0,34
11.02.1978;0,33
12.02.1978;0,32
13.02.1978;0,32
14.02.1978;0,32
15.02.1978;0,31
16.02.1978;0,31
17.02.1978;0,31
18.02.1978;0,31
19.02.1978;0,3
20.02.1978;0,3
21.02.1978;0,3
22.02.1978;0,3
23.02.1978;0,3
24.02.1978;0,29
25.02.1978;0,29
26.02.1978;0,29
27.02.1978;0,34
28.02.1978;0,45
01.03.1978;0,56
02.03.1978;0,56
03.03.1978;0,56
04.03.1978;0,55
05.03.1978;0,55
06.03.1978;0,55
07.03.1978;0,54
08.03.1978;0,54
09.03.1978;0,53
10.03.1978;0,52
11.03.1978;0,51
12.03.1978;0,51
13.03.1978;0,54
14.03.1978;0,57
15.03.1978;0,59
16.03.1978;0,62
17.03.1978;0,65
18.03.1978;0,68
19.03.1978;0,65
20.03.1978;0,63
21.03.1978;0,6
22.03.1978;0,57
23.03.1978;0,54
24.03.1978;0,52
25.03.1978;0,59
26.03.1978;0,65
27.03.1978;0,72
28.03.1978;0,78
29.03.1978;0,85
30.03.1978;1,53
31.03.1978;3,34
01.04.1978;4,48
02.04.1978;4,26
03.04.1978;3,22
04.04.1978;3,72
05.04.1978;3,4
06.04.1978;3,34
07.04.1978;3,14
08.04.1978;3,08
09.04.1978;3,08
10.04.1978;3,2
11.04.1978;4,37
12.04.1978;5,56
13.04.1978;6,53
14.04.1978;7,5
15.04.1978;7,94
16.04.1978;9,23
17.04.1978;9,88
18.04.1978;8,37
19.04.1978;7,77
20.04.1978;7,18
21.04.1978;6,6
22.04.1978;5,6
23.04.1978;4,62
24.04.1978;4,1
25.04.1978;4,62
26.04.1978;3,84
27.04.1978;3,24
28.04.1978;3,1
29.04.1978;2,89
30.04.1978;2,68
01.05.1978;2,55
02.05.1978;2,48
03.05.1978;2,34
04.05.1978;2,21
05.05.1978;2,07
06.05.1978;1,93
07.05.1978;1,8
08.05.1978;1,73
09.05.1978;1,66
10.05.1978;1,53
11.05.1978;1,46
12.05.1978;2,07
13.05.1978;2,27
14.05.1978;2,27
15.05.1978;2,27
16.05.1978;2,34
17.05.1978;2,27
18.05.1978;2,07
19.05.1978;1,8
20.05.1978;1,53
21.05.1978;1,39
22.05.1978;1,25
23.05.1978;1,12
24.05.1978;1,05
25.05.1978;1
26.05.1978;0,9
27.05.1978;0,8
28.05.1978;0,75
29.05.1978;0,7
30.05.1978;0,65
31.05.1978;0,8
01.06.1978;0,95
02.06.1978;0,51
03.06.1978;0,46
04.06.1978;0,51
05.06.1978;0,46
06.06.1978;0,42
07.06.1978;0,35
08.06.1978;0,51
09.06.1978;0,38
10.06.1978;0,35
11.06.1978;0,51
12.06.1978;0,51
13.06.1978;0,51
14.06.1978;0,51
15.06.1978;0,56
16.06.1978;0,6
17.06.1978;0,65
18.06.1978;0,56
19.06.1978;0,51
20.06.1978;0,51
21.06.1978;0,42
22.06.1978;0,38
23.06.1978;0,35
24.06.1978;0,35
25.06.1978;0,35
26.06.1978;0,56
27.06.1978;0,65
28.06.1978;0,9
29.06.1978;0,9
30.06.1978;0,7
01.07.1978;0,51
02.07.1978;0,42
03.07.1978;0,32
04.07.1978;0,32
05.07.1978;0,28
06.07.1978;0,35
07.07.1978;0,32
08.07.1978;0,32
09.07.1978;0,35
10.07.1978;0,46
11.07.1978;0,6
12.07.1978;0,7
13.07.1978;0,65
14.07.1978;0,6
15.07.1978;0,56
16.07.1978;0,51
17.07.1978;0,46
18.07.1978;1,12
19.07.1978;2,34
20.07.1978;2,14
21.07.1978;1,93
22.07.1978;1,66
23.07.1978;0,75
24.07.1978;1
25.07.1978;0,7
26.07.1978;0,6
27.07.1978;0,51
28.07.1978;0,38
29.07.1978;0,32
30.07.1978;0,35
31.07.1978;0,35
01.08.1978;0,35
02.08.1978;0,35
03.08.1978;0,38
04.08.1978;0,42
05.08.1978;0,46
06.08.1978;0,51
07.08.1978;0,51
08.08.1978;0,75
09.08.1978;0,95
10.08.1978;1,25
11.08.1978;2,89
12.08.1978;2,96
13.08.1978;2,48
14.08.1978;2
15.08.1978;1,73
16.08.1978;1,53
17.08.1978;1,25
18.08.1978;1,12
19.08.1978;1,12
20.08.1978;1,05
21.08.1978;1
22.08.1978;1,05
23.08.1978;1,12
24.08.1978;1,25
25.08.1978;1,32
26.08.1978;1,25
27.08.1978;1,8
28.08.1978;2,61
29.08.1978;2,88
30.08.1978;3,14
31.08.1978;4,48
01.09.1978;5,24
02.09.1978;5,56
03.09.1978;5,45
04.09.1978;5,56
05.09.1978;5,34
06.09.1978;4,59
07.09.1978;3,72
08.09.1978;3,14
09.09.1978;2,68
10.09.1978;2,41
11.09.1978;2,48
12.09.1978;3,94
13.09.1978;4,91
14.09.1978;4,26
15.09.1978;5,34
16.09.1978;7,5
17.09.1978;8,04
18.09.1978;7,5
19.09.1978;6,53
20.09.1978;5,45
21.09.1978;4,8
22.09.1978;4,48
23.09.1978;4,26
24.09.1978;3,22
25.09.1978;3,27
26.09.1978;3,14
27.09.1978;2,94
28.09.1978;3,01
29.09.1978;3,08
30.09.1978;2,94
01.10.1978;2,75
02.10.1978;2,55
03.10.1978;2,34
04.10.1978;2,14
05.10.1978;2
06.10.1978;1,93
07.10.1978;1,87
08.10.1978;1,73
09.10.1978;1,66
10.10.1978;1,59
11.10.1978;1,46
12.10.1978;1,46
13.10.1978;1,39
14.10.1978;1,39
15.10.1978;1,32
16.10.1978;1,25
17.10.1978;1,25
18.10.1978;1,32
19.10.1978;1,39
20.10.1978;1,46
21.10.1978;1,53
22.10.1978;1,39
23.10.1978;1,39
24.10.1978;1,32
25.10.1978;1,53
26.10.1978;1,53
27.10.1978;1,46
28.10.1978;1,39
29.10.1978;1,53
30.10.1978;1,53
31.10.1978;1,39
01.11.1978;1,25
02.11.1978;1,39
03.11.1978;1,46
04.11.1978;1,46
05.11.1978;1,39
06.11.1978;1,46
07.11.1978;2
08.11.1978;1,93
09.11.1978;1,87
10.11.1978;1,8
11.11.1978;1,66
12.11.1978;1,53
13.11.1978;1,46
14.11.1978;1,39
15.11.1978;1,73
16.11.1978;2,07
17.11.1978;2,07
18.11.1978;2,34
19.11.1978;2,94
20.11.1978;3,34
21.11.1978;3,51
22.11.1978;3,2
23.11.1978;3,34
24.11.1978;3,94
25.11.1978;3,4
26.11.1978;2,94
27.11.1978;2,68
28.11.1978;2,48
29.11.1978;2,61
30.11.1978;2,46
01.12.1978;2,31
02.12.1978;2,17
03.12.1978;2,03
04.12.1978;1,99
05.12.1978;1,84
06.12.1978;1,6
07.12.1978;1,48
08.12.1978;1,35
09.12.1978;1,23
10.12.1978;1,1
11.12.1978;0,98
12.12.1978;0,93
13.12.1978;0,88
14.12.1978;0,84
15.12.1978;0,79
16.12.1978;0,74
17.12.1978;0,71
18.12.1978;0,67
19.12.1978;0,67
20.12.1978;0,67
21.12.1978;0,67
22.12.1978;0,67
23.12.1978;0,66
24.12.1978;0,6
25.12.1978;0,62
26.12.1978;0,65
27.12.1978;0,65
28.12.1978;0,63
29.12.1978;0,61
30.12.1978;0,59
31.12.1978;0,59
01.01.1979;0,58
02.01.1979;0,58
03.01.1979;0,58
04.01.1979;0,59
05.01.1979;0,59
06.01.1979;0,61
07.01.1979;0,61
08.01.1979;0,61
09.01.1979;0,62
10.01.1979;0,6
11.01.1979;0,7
12.01.1979;0,71
13.01.1979;0,85
14.01.1979;0,92
15.01.1979;0,87
16.01.1979;0,75
17.01.1979;0,7
18.01.1979;0,66
19.01.1979;0,65
20.01.1979;0,62
21.01.1979;0,57
22.01.1979;0,54
23.01.1979;0,55
24.01.1979;0,51
25.01.1979;0,5
26.01.1979;0,52
27.01.1979;0,52
28.01.1979;0,52
29.01.1979;0,5
30.01.1979;0,52
31.01.1979;0,5
01.02.1979;0,6
02.02.1979;0,58
03.02.1979;0,58
04.02.1979;0,66
05.02.1979;0,61
06.02.1979;0,57
07.02.1979;0,54
08.02.1979;0,57
09.02.1979;0,57
10.02.1979;0,54
11.02.1979;0,51
12.02.1979;0,54
13.02.1979;0,54
14.02.1979;0,54
15.02.1979;0,54
16.02.1979;0,54
17.02.1979;0,52
18.02.1979;0,51
19.02.1979;0,5
20.02.1979;0,49
21.02.1979;0,48
22.02.1979;0,53
23.02.1979;0,51
24.02.1979;0,5
25.02.1979;0,49
26.02.1979;0,42
27.02.1979;0,41
28.02.1979;0,4
01.03.1979;0,48
02.03.1979;0,56
03.03.1979;0,64
04.03.1979;0,7
05.03.1979;0,61
06.03.1979;0,45
07.03.1979;0,4
08.03.1979;0,46
09.03.1979;0,47
10.03.1979;0,49
11.03.1979;0,51
12.03.1979;0,52
13.03.1979;0,53
14.03.1979;0,55
15.03.1979;0,56
16.03.1979;0,57
17.03.1979;0,59
18.03.1979;0,61
19.03.1979;0,64
20.03.1979;0,64
21.03.1979;0,6
22.03.1979;0,64
23.03.1979;0,64
24.03.1979;0,69
25.03.1979;0,74
26.03.1979;0,74
27.03.1979;0,78
28.03.1979;0,83
29.03.1979;1,21
30.03.1979;1,53
31.03.1979;2,06
01.04.1979;3,38
02.04.1979;4,43
03.04.1979;6,42
04.04.1979;7,03
05.04.1979;7,27
06.04.1979;7,27
07.04.1979;7,15
08.04.1979;6,66
09.04.1979;6,29
10.04.1979;5,69
11.04.1979;5,33
12.04.1979;4,85
13.04.1979;4,85
14.04.1979;5,09
15.04.1979;4,64
16.04.1979;3,7
17.04.1979;2,86
18.04.1979;2,48
19.04.1979;2,21
20.04.1979;2
21.04.1979;1,8
22.04.1979;1,8
23.04.1979;1,87
24.04.1979;2,07
25.04.1979;2,34
26.04.1979;2,86
27.04.1979;4,01
28.04.1979;5,69
29.04.1979;4,97
30.04.1979;4,12
01.05.1979;3,59
02.05.1979;3,17
03.05.1979;2,75
04.05.1979;3,06
05.05.1979;4,54
06.05.1979;4,54
07.05.1979;4,85
08.05.1979;7,03
09.05.1979;6,54
10.05.1979;4,74
11.05.1979;4,01
12.05.1979;4,43
13.05.1979;4,32
14.05.1979;3,59
15.05.1979;3,17
16.05.1979;2,75
17.05.1979;2,55
18.05.1979;2,41
19.05.1979;2,14
20.05.1979;2,07
21.05.1979;1,73
22.05.1979;1,59
23.05.1979;1,46
24.05.1979;1,32
25.05.1979;1,19
26.05.1979;1,12
27.05.1979;1,12
28.05.1979;0,9
29.05.1979;0,8
30.05.1979;0,75
31.05.1979;0,75
01.06.1979;0,7
02.06.1979;0,7
03.06.1979;0,6
04.06.1979;0,51
05.06.1979;0,51
06.06.1979;0,56
07.06.1979;0,51
08.06.1979;0,46
09.06.1979;0,56
10.06.1979;0,56
11.06.1979;0,51
12.06.1979;0,46
13.06.1979;0,42
14.06.1979;0,42
15.06.1979;0,42
16.06.1979;0,42
17.06.1979;0,38
18.06.1979;0,38
19.06.1979;0,38
20.06.1979;0,38
21.06.1979;0,38
22.06.1979;0,35
23.06.1979;0,35
24.06.1979;0,35
25.06.1979;0,35
26.06.1979;0,35
27.06.1979;0,32
28.06.1979;0,32
29.06.1979;0,32
30.06.1979;0,35
01.07.1979;0,38
02.07.1979;0,38
03.07.1979;0,35
04.07.1979;0,35
05.07.1979;0,32
06.07.1979;0,32
07.07.1979;0,32
08.07.1979;0,32
09.07.1979;0,32
10.07.1979;0,32
11.07.1979;0,32
12.07.1979;0,32
13.07.1979;0,32
14.07.1979;0,35
15.07.1979;0,35
16.07.1979;0,35
17.07.1979;0,35
18.07.1979;0,35
19.07.1979;0,38
20.07.1979;0,38
21.07.1979;0,38
22.07.1979;0,38
23.07.1979;0,42
24.07.1979;0,46
25.07.1979;0,51
26.07.1979;0,56
27.07.1979;0,65
28.07.1979;1,39
29.07.1979;1,32
30.07.1979;1,59
31.07.1979;1,39
01.08.1979;1,05
02.08.1979;0,95
03.08.1979;0,85
04.08.1979;0,7
05.08.1979;0,7
06.08.1979;0,6
07.08.1979;0,56
08.08.1979;0,56
09.08.1979;0,51
10.08.1979;0,46
11.08.1979;0,46
12.08.1979;0,42
13.08.1979;0,42
14.08.1979;0,38
15.08.1979;0,35
16.08.1979;0,35
17.08.1979;0,35
18.08.1979;0,35
19.08.1979;0,32
20.08.1979;0,32
21.08.1979;0,7
22.08.1979;1,05
23.08.1979;0,9
24.08.1979;0,75
25.08.1979;0,7
26.08.1979;0,7
27.08.1979;0,65
28.08.1979;0,6
29.08.1979;0,6
30.08.1979;0,56
31.08.1979;0,51
01.09.1979;0,51
02.09.1979;0,56
03.09.1979;0,6
04.09.1979;0,56
05.09.1979;0,56
06.09.1979;0,65
07.09.1979;1,05
08.09.1979;1
09.09.1979;0,9
10.09.1979;0,8
11.09.1979;0,75
12.09.1979;0,8
13.09.1979;0,85
14.09.1979;0,8
15.09.1979;0,7
16.09.1979;0,65
17.09.1979;0,6
18.09.1979;0,85
19.09.1979;1,73
20.09.1979;1,66
21.09.1979;1,59
22.09.1979;2
23.09.1979;1,8
24.09.1979;1,59
25.09.1979;1,39
26.09.1979;1,25
27.09.1979;1,32
28.09.1979;1,32
29.09.1979;1,25
30.09.1979;1,25
01.10.1979;1,53
02.10.1979;1,87
03.10.1979;1,81
04.10.1979;1,73
05.10.1979;1,73
06.10.1979;1,73
07.10.1979;1,66
08.10.1979;1,53
09.10.1979;1,39
10.10.1979;1,32
11.10.1979;1,25
12.10.1979;1,32
13.10.1979;1,25
14.10.1979;1,19
15.10.1979;1,19
16.10.1979;1,12
17.10.1979;1,12
18.10.1979;1,05
19.10.1979;1,05
20.10.1979;1,12
21.10.1979;1,12
22.10.1979;1,19
23.10.1979;1,25
24.10.1979;1,32
25.10.1979;1,25
26.10.1979;1,25
27.10.1979;1,19
28.10.1979;1,19
29.10.1979;1,12
30.10.1979;1
31.10.1979;0,9
01.11.1979;0,8
02.11.1979;0,75
03.11.1979;0,7
04.11.1979;0,65
05.11.1979;0,65
06.11.1979;0,65
07.11.1979;0,8
08.11.1979;1
09.11.1979;1,32
10.11.1979;1,73
11.11.1979;1,87
12.11.1979;1,8
13.11.1979;1,8
14.11.1979;1,66
15.11.1979;1,59
16.11.1979;1,8
17.11.1979;2,27
18.11.1979;2,86
19.11.1979;4,97
20.11.1979;4,64
21.11.1979;3,8
22.11.1979;3,17
23.11.1979;2,75
24.11.1979;2,61
25.11.1979;2,68
26.11.1979;2,75
27.11.1979;3,38
28.11.1979;4,97
29.11.1979;4,64
30.11.1979;3,7
01.12.1979;3,28
02.12.1979;3,17
03.12.1979;3,28
04.12.1979;5,09
05.12.1979;5,21
06.12.1979;4,74
07.12.1979;4,22
08.12.1979;3,7
09.12.1979;2,68
10.12.1979;2,46
11.12.1979;2,25
12.12.1979;2,03
13.12.1979;1,81
14.12.1979;1,6
15.12.1979;1,38
16.12.1979;1,45
17.12.1979;1,52
18.12.1979;1,59
19.12.1979;1,66
20.12.1979;1,73
21.12.1979;1,73
22.12.1979;1,66
23.12.1979;1,59
24.12.1979;1,72
25.12.1979;1,72
26.12.1979;1,81
27.12.1979;1,66
28.12.1979;1,53
29.12.1979;1,43
30.12.1979;1,33
31.12.1979;1,23
01.01.1980;1,18
02.01.1980;1,13
03.01.1980;1,08
04.01.1980;1,03
05.01.1980;0,98
06.01.1980;0,97
07.01.1980;0,96
08.01.1980;0,95
09.01.1980;0,94
10.01.1980;0,93
11.01.1980;0,93
12.01.1980;0,93
13.01.1980;0,94
14.01.1980;0,94
15.01.1980;0,94
16.01.1980;0,9
17.01.1980;0,86
18.01.1980;0,82
19.01.1980;0,78
20.01.1980;0,74
21.01.1980;0,75
22.01.1980;0,76
23.01.1980;0,76
24.01.1980;0,77
25.01.1980;0,78
26.01.1980;0,74
27.01.1980;0,7
28.01.1980;0,65
29.01.1980;0,61
30.01.1980;0,57
31.01.1980;0,53
01.02.1980;0,54
02.02.1980;0,54
03.02.1980;0,55
04.02.1980;0,55
05.02.1980;0,56
06.02.1980;0,52
07.02.1980;0,48
08.02.1980;0,43
09.02.1980;0,39
10.02.1980;0,41
11.02.1980;0,43
12.02.1980;0,44
13.02.1980;0,46
14.02.1980;0,48
15.02.1980;0,48
16.02.1980;0,48
17.02.1980;0,49
18.02.1980;0,49
19.02.1980;0,49
20.02.1980;0,5
21.02.1980;0,51
22.02.1980;0,52
23.02.1980;0,53
24.02.1980;0,54
25.02.1980;0,53
26.02.1980;0,53
27.02.1980;0,52
28.02.1980;0,52
29.02.1980;0,51
01.03.1980;0,53
02.03.1980;0,56
03.03.1980;0,58
04.03.1980;0,6
05.03.1980;0,6
06.03.1980;0,6
07.03.1980;0,61
08.03.1980;0,61
09.03.1980;0,61
10.03.1980;0,62
11.03.1980;0,63
12.03.1980;0,64
13.03.1980;0,65
14.03.1980;0,66
15.03.1980;0,64
16.03.1980;0,63
17.03.1980;0,62
18.03.1980;0,6
19.03.1980;0,58
20.03.1980;0,57
21.03.1980;0,53
22.03.1980;0,48
23.03.1980;0,44
24.03.1980;0,39
25.03.1980;0,35
26.03.1980;0,35
27.03.1980;0,34
28.03.1980;0,34
29.03.1980;0,34
30.03.1980;0,33
31.03.1980;0,33
01.04.1980;0,46
02.04.1980;0,59
03.04.1980;0,72
04.04.1980;0,85
05.04.1980;0,94
06.04.1980;1,03
07.04.1980;1,3
08.04.1980;2,18
09.04.1980;3,06
10.04.1980;4,67
11.04.1980;4,53
12.04.1980;4,61
13.04.1980;4,72
14.04.1980;5,05
15.04.1980;5,16
16.04.1980;5,7
17.04.1980;5,95
18.04.1980;5,95
19.04.1980;5,82
20.04.1980;5,7
21.04.1980;5,7
22.04.1980;5,26
23.04.1980;4,53
24.04.1980;4,28
25.04.1980;4,11
26.04.1980;3,78
27.04.1980;3,45
28.04.1980;3,2
29.04.1980;2,87
30.04.1980;2,54
01.05.1980;2,38
02.05.1980;2,21
03.05.1980;2
04.05.1980;1,87
05.05.1980;1,75
06.05.1980;1,68
07.05.1980;1,62
08.05.1980;1,49
09.05.1980;1,49
10.05.1980;1,36
11.05.1980;1,3
12.05.1980;1,23
13.05.1980;1,17
14.05.1980;1,11
15.05.1980;0,98
16.05.1980;0,91
17.05.1980;0,91
18.05.1980;0,85
19.05.1980;1,04
20.05.1980;1,11
21.05.1980;0,98
22.05.1980;0,98
23.05.1980;0,98
24.05.1980;1,11
25.05.1980;1,3
26.05.1980;1,42
27.05.1980;1,81
28.05.1980;1,87
29.05.1980;1,68
30.05.1980;1,49
31.05.1980;1,49
01.06.1980;1,36
02.06.1980;1,17
03.06.1980;1,04
04.06.1980;0,85
05.06.1980;0,75
06.06.1980;0,7
07.06.1980;0,65
08.06.1980;0,6
09.06.1980;0,56
10.06.1980;0,51
11.06.1980;0,47
12.06.1980;0,47
13.06.1980;0,43
14.06.1980;0,43
15.06.1980;0,39
16.06.1980;0,39
17.06.1980;0,39
18.06.1980;0,36
19.06.1980;0,36
20.06.1980;0,36
21.06.1980;0,39
22.06.1980;0,43
23.06.1980;0,51
24.06.1980;0,56
25.06.1980;0,6
26.06.1980;0,56
27.06.1980;0,51
28.06.1980;0,43
29.06.1980;0,39
30.06.1980;0,36
01.07.1980;0,36
02.07.1980;0,36
03.07.1980;0,32
04.07.1980;0,32
05.07.1980;0,32
06.07.1980;0,32
07.07.1980;0,32
08.07.1980;0,32
09.07.1980;0,29
10.07.1980;0,29
11.07.1980;0,29
12.07.1980;0,29
13.07.1980;0,32
14.07.1980;0,32
15.07.1980;0,32
16.07.1980;0,32
17.07.1980;0,36
18.07.1980;0,39
19.07.1980;0,47
20.07.1980;0,51
21.07.1980;0,51
22.07.1980;0,47
23.07.1980;0,47
24.07.1980;0,43
25.07.1980;0,43
26.07.1980;0,43
27.07.1980;0,39
28.07.1980;0,39
29.07.1980;0,36
30.07.1980;0,36
31.07.1980;0,36
01.08.1980;0,36
02.08.1980;0,36
03.08.1980;0,36
04.08.1980;0,36
05.08.1980;0,36
06.08.1980;0,36
07.08.1980;0,39
08.08.1980;0,39
09.08.1980;0,43
10.08.1980;0,43
11.08.1980;0,39
12.08.1980;0,39
13.08.1980;0,36
14.08.1980;0,36
15.08.1980;0,32
16.08.1980;0,32
17.08.1980;0,32
18.08.1980;0,32
19.08.1980;0,32
20.08.1980;0,32
21.08.1980;0,32
22.08.1980;0,32
23.08.1980;0,32
24.08.1980;0,36
25.08.1980;0,36
26.08.1980;0,36
27.08.1980;0,39
28.08.1980;0,43
29.08.1980;0,43
30.08.1980;0,47
31.08.1980;0,51
01.09.1980;0,47
02.09.1980;0,47
03.09.1980;0,51
04.09.1980;0,51
05.09.1980;0,56
06.09.1980;0,56
07.09.1980;0,51
08.09.1980;0,51
09.09.1980;0,47
10.09.1980;0,47
11.09.1980;0,43
12.09.1980;0,43
13.09.1980;0,47
14.09.1980;0,51
15.09.1980;0,56
16.09.1980;0,56
17.09.1980;0,56
18.09.1980;0,56
19.09.1980;0,56
20.09.1980;0,56
21.09.1980;0,56
22.09.1980;0,56
23.09.1980;0,6
24.09.1980;0,6
25.09.1980;0,6
26.09.1980;0,6
27.09.1980;0,6
28.09.1980;0,56
29.09.1980;0,56
30.09.1980;0,51
01.10.1980;0,51
02.10.1980;0,51
03.10.1980;0,56
04.10.1980;0,56
05.10.1980;0,56
06.10.1980;0,6
07.10.1980;0,65
08.10.1980;0,7
09.10.1980;0,91
10.10.1980;1,17
11.10.1980;1,49
12.10.1980;1,62
13.10.1980;1,55
14.10.1980;1,42
15.10.1980;1,36
16.10.1980;1,49
17.10.1980;1,49
18.10.1980;1,42
19.10.1980;1,36
20.10.1980;1,75
21.10.1980;1,75
22.10.1980;1,75
23.10.1980;1,62
24.10.1980;1,55
25.10.1980;1,75
26.10.1980;1,94
27.10.1980;2,13
28.10.1980;2,07
29.10.1980;2,46
30.10.1980;2,7
31.10.1980;2,38
01.11.1980;2,29
02.11.1980;2,07
03.11.1980;1,55
04.11.1980;1,49
05.11.1980;1,36
06.11.1980;1,29
07.11.1980;1,22
08.11.1980;1,16
09.11.1980;1,09
10.11.1980;1,02
11.11.1980;1,04
12.11.1980;1,07
13.11.1980;1,09
14.11.1980;1,11
15.11.1980;1,13
16.11.1980;1,13
17.11.1980;1,22
18.11.1980;1,7
19.11.1980;4,35
20.11.1980;5,05
21.11.1980;4,35
22.11.1980;4,28
23.11.1980;4,95
24.11.1980;6,01
25.11.1980;6,01
26.11.1980;5,05
27.11.1980;4,08
28.11.1980;3,1
29.11.1980;2,25
30.11.1980;1,57
01.12.1980;1,53
02.12.1980;1,49
03.12.1980;1,44
04.12.1980;1,4
05.12.1980;1,36
06.12.1980;1,38
07.12.1980;1,4
08.12.1980;1,42
09.12.1980;1,44
10.12.1980;1,46
11.12.1980;1,5
12.12.1980;1,5
13.12.1980;1,7
14.12.1980;2
15.12.1980;2,43
16.12.1980;2,32
17.12.1980;2,22
18.12.1980;2,12
19.12.1980;2,01
20.12.1980;1,91
21.12.1980;1,66
22.12.1980;1,41
23.12.1980;1,4
24.12.1980;1,38
25.12.1980;1,37
26.12.1980;1,36
27.12.1980;1,42
28.12.1980;1,47
29.12.1980;1,53
30.12.1980;1,58
31.12.1980;1,64
01.01.1981;2,14
02.01.1981;2,25
03.01.1981;2,05
04.01.1981;1,91
05.01.1981;1,85
06.01.1981;1,69
07.01.1981;1,58
08.01.1981;1,46
09.01.1981;1,34
10.01.1981;1,23
11.01.1981;1,15
12.01.1981;1,09
13.01.1981;1
14.01.1981;0,93
15.01.1981;0,85
16.01.1981;0,87
17.01.1981;0,88
18.01.1981;0,9
19.01.1981;0,91
20.01.1981;0,93
21.01.1981;0,91
22.01.1981;0,88
23.01.1981;0,86
24.01.1981;0,83
25.01.1981;0,81
26.01.1981;0,82
27.01.1981;0,83
28.01.1981;0,84
29.01.1981;0,85
30.01.1981;0,86
31.01.1981;0,87
01.02.1981;0,91
02.02.1981;0,95
03.02.1981;0,99
04.02.1981;1,03
05.02.1981;1,08
06.02.1981;1,06
07.02.1981;1,04
08.02.1981;1,02
09.02.1981;1
10.02.1981;0,98
11.02.1981;0,98
12.02.1981;0,99
13.02.1981;1
14.02.1981;1
15.02.1981;0,94
16.02.1981;0,87
17.02.1981;0,81
18.02.1981;0,75
19.02.1981;0,69
20.02.1981;0,63
21.02.1981;0,64
22.02.1981;0,66
23.02.1981;0,67
24.02.1981;0,69
25.02.1981;0,7
26.02.1981;0,65
27.02.1981;0,6
28.02.1981;0,55
01.03.1981;0,55
02.03.1981;0,56
03.03.1981;0,56
04.03.1981;0,57
05.03.1981;0,57
06.03.1981;0,56
07.03.1981;0,56
08.03.1981;0,56
09.03.1981;0,55
10.03.1981;0,54
11.03.1981;0,54
12.03.1981;0,56
13.03.1981;0,59
14.03.1981;0,61
15.03.1981;0,64
16.03.1981;0,66
17.03.1981;0,67
18.03.1981;0,67
19.03.1981;0,67
20.03.1981;0,67
21.03.1981;0,67
22.03.1981;0,67
23.03.1981;1,8
24.03.1981;2,54
25.03.1981;2,5
26.03.1981;2,39
27.03.1981;1,9
28.03.1981;1,85
29.03.1981;1,7
30.03.1981;1,65
31.03.1981;1,62
01.04.1981;1,81
02.04.1981;2,79
03.04.1981;3,36
04.04.1981;3,61
05.04.1981;4,53
06.04.1981;4,72
07.04.1981;4,72
08.04.1981;5,48
09.04.1981;5,7
10.04.1981;6,63
11.04.1981;7,3
12.04.1981;7,43
13.04.1981;7,43
14.04.1981;7,03
15.04.1981;6,76
16.04.1981;5,97
17.04.1981;4,61
18.04.1981;3,78
19.04.1981;3,45
20.04.1981;3,2
21.04.1981;3,12
22.04.1981;2,95
23.04.1981;2,54
24.04.1981;2,29
25.04.1981;2,21
26.04.1981;2,07
27.04.1981;2,38
28.04.1981;2,7
29.04.1981;3,03
30.04.1981;3,36
01.05.1981;3,28
02.05.1981;3,28
03.05.1981;3,28
04.05.1981;3,28
05.05.1981;3,12
06.05.1981;2,95
07.05.1981;2,95
08.05.1981;2,87
09.05.1981;2,62
10.05.1981;2,46
11.05.1981;2,38
12.05.1981;2,21
13.05.1981;1,94
14.05.1981;1,75
15.05.1981;1,62
16.05.1981;1,49
17.05.1981;1,36
18.05.1981;1,23
19.05.1981;1,11
20.05.1981;1,11
21.05.1981;1,04
22.05.1981;0,98
23.05.1981;0,85
24.05.1981;0,75
25.05.1981;0,75
26.05.1981;0,8
27.05.1981;0,85
28.05.1981;0,85
29.05.1981;0,98
30.05.1981;0,98
31.05.1981;1,17
01.06.1981;1,11
02.06.1981;0,98
03.06.1981;0,85
04.06.1981;0,8
05.06.1981;0,75
06.06.1981;0,65
07.06.1981;0,65
08.06.1981;0,6
09.06.1981;0,6
10.06.1981;0,6
11.06.1981;0,56
12.06.1981;0,56
13.06.1981;0,75
14.06.1981;1,04
15.06.1981;1,11
16.06.1981;0,98
17.06.1981;1,42
18.06.1981;2,87
19.06.1981;3,36
20.06.1981;3,03
21.06.1981;2,7
22.06.1981;2,13
23.06.1981;1,87
24.06.1981;1,75
25.06.1981;1,62
26.06.1981;1,62
27.06.1981;1,42
28.06.1981;1,23
29.06.1981;1,11
30.06.1981;0,85
01.07.1981;0,75
02.07.1981;0,75
03.07.1981;0,7
04.07.1981;0,65
05.07.1981;0,65
06.07.1981;0,6
07.07.1981;0,56
08.07.1981;0,56
09.07.1981;0,51
10.07.1981;0,51
11.07.1981;0,51
12.07.1981;0,47
13.07.1981;0,47
14.07.1981;0,47
15.07.1981;0,47
16.07.1981;0,47
17.07.1981;0,47
18.07.1981;0,47
19.07.1981;0,47
20.07.1981;0,47
21.07.1981;0,47
22.07.1981;0,47
23.07.1981;1,49
24.07.1981;2,13
25.07.1981;1,87
26.07.1981;1,42
27.07.1981;1,42
28.07.1981;1,81
29.07.1981;1,87
30.07.1981;2
31.07.1981;2,62
01.08.1981;2,38
02.08.1981;1,94
03.08.1981;1,68
04.08.1981;1,42
05.08.1981;1,3
06.08.1981;1,17
07.08.1981;1,11
08.08.1981;1,11
09.08.1981;1,23
10.08.1981;1,04
11.08.1981;0,91
12.08.1981;0,75
13.08.1981;0,75
14.08.1981;0,75
15.08.1981;0,7
16.08.1981;0,7
17.08.1981;0,7
18.08.1981;0,7
19.08.1981;0,75
20.08.1981;0,8
21.08.1981;0,85
22.08.1981;0,91
23.08.1981;1,17
24.08.1981;1,81
25.08.1981;3,03
26.08.1981;2,87
27.08.1981;2,46
28.08.1981;2,29
29.08.1981;2,79
30.08.1981;2,7
31.08.1981;2,62
01.09.1981;2,46
02.09.1981;2,21
03.09.1981;2,21
04.09.1981;3,03
05.09.1981;3,28
06.09.1981;2,95
07.09.1981;2,62
08.09.1981;2,21
09.09.1981;1,94
10.09.1981;1,75
11.09.1981;1,62
12.09.1981;1,49
13.09.1981;1,42
14.09.1981;1,49
15.09.1981;1,49
16.09.1981;1,36
17.09.1981;1,36
18.09.1981;1,3
19.09.1981;1,3
20.09.1981;1,23
21.09.1981;1,17
22.09.1981;1,75
23.09.1981;2,29
24.09.1981;2,46
25.09.1981;2,46
26.09.1981;2,21
27.09.1981;2,29
28.09.1981;2,29
29.09.1981;2,07
30.09.1981;1,87
01.10.1981;1,75
02.10.1981;1,62
03.10.1981;1,55
04.10.1981;1,49
05.10.1981;1,49
06.10.1981;1,49
07.10.1981;1,42
08.10.1981;1,75
09.10.1981;1,87
10.10.1981;1,75
11.10.1981;2
12.10.1981;2,79
13.10.1981;3,45
14.10.1981;3,2
15.10.1981;2,79
16.10.1981;2,46
17.10.1981;2,13
18.10.1981;2,13
19.10.1981;2,29
20.10.1981;2,29
21.10.1981;2,79
22.10.1981;4,03
23.10.1981;4,53
24.10.1981;5,7
25.10.1981;6,23
26.10.1981;5,7
27.10.1981;5,26
28.10.1981;4,44
29.10.1981;4,2
30.10.1981;4,94
31.10.1981;5,26
01.11.1981;4,83
02.11.1981;4,36
03.11.1981;3,86
04.11.1981;3,28
05.11.1981;3,28
06.11.1981;4,03
07.11.1981;4,03
08.11.1981;3,86
09.11.1981;3,61
10.11.1981;3,28
11.11.1981;2,95
12.11.1981;2,79
13.11.1981;2,87
14.11.1981;3,28
15.11.1981;3,28
16.11.1981;3,03
17.11.1981;2,7
18.11.1981;2,38
19.11.1981;2,13
20.11.1981;2
21.11.1981;2,38
22.11.1981;4,03
23.11.1981;4,53